| time (UTC) | temp F | wind direction | speed knots | gust knots | rain 1hr in | rain 24hr in | rain mn in | humidity % | barometer mb |
| 20260508033604 | 64 | 148 | 2.6 | 6.1 | 0.00 | 0.01 | 0.00 | 67 | 1012.6 |
| 20260508032733 | 64 | 103 | 1.7 | 4.3 | 0.00 | 0.01 | 0.00 | 66 | 1012.3 |
| 20260508031826 | 64 | 120 | 1.7 | 3.5 | 0.00 | 0.01 | 0.00 | 67 | 1012.4 |
| 20260508030905 | 64 | 102 | 3.5 | 5.2 | 0.00 | 0.01 | 0.00 | 65 | 1012.3 |
| 20260508030011 | 64 | 88 | 3.5 | 5.2 | 0.00 | 0.02 | 0.00 | 67 | 1012.1 |
| 20260508025425 | 64 | 94 | 4.3 | 7.0 | 0.00 | 0.02 | 0.00 | 67 | 1012.3 |
| 20260508024504 | 64 | 88 | 3.5 | 6.1 | 0.00 | 0.03 | 0.00 | 67 | 1012.3 |
| 20260508023626 | 63 | 65 | 3.5 | 5.2 | 0.00 | 0.03 | 0.00 | 67 | 1012.2 |
| 20260508022705 | 63 | 45 | 2.6 | 4.3 | 0.00 | 0.03 | 0.00 | 66 | 1012.3 |
| 20260508021825 | 64 | 88 | 1.7 | 3.5 | 0.00 | 0.03 | 0.00 | 64 | 1012.2 |
| 20260508020904 | 64 | 58 | 1.7 | 2.6 | 0.00 | 0.03 | 0.00 | 62 | 1012.3 |
| 20260508020004 | 64 | 52 | 1.7 | 2.6 | 0.00 | 0.03 | 0.00 | 63 | 1012.3 |
| 20260508015405 | 64 | 42 | 1.7 | 2.6 | 0.00 | 0.03 | 0.00 | 64 | 1012.2 |
| 20260508014505 | 63 | 51 | 1.7 | 4.3 | 0.00 | 0.03 | 0.00 | 66 | 1012.5 |
| 20260508013604 | 64 | 66 | 1.7 | 3.5 | 0.00 | 0.04 | 0.00 | 64 | 1012.5 |
| 20260508012704 | 64 | 60 | 1.7 | 2.6 | 0.00 | 0.04 | 0.00 | 64 | 1012.2 |
| 20260508011807 | 64 | 48 | 1.7 | 2.6 | 0.00 | 0.04 | 0.00 | 65 | 1012.5 |
| 20260508010926 | 64 | 50 | 1.7 | 2.6 | 0.00 | 0.04 | 0.00 | 65 | 1012.5 |
| 20260508010004 | 64 | 57 | 1.7 | 3.5 | 0.00 | 0.04 | 0.00 | 64 | 1012.5 |
| 20260508005404 | 63 | 57 | 1.7 | 2.6 | 0.00 | 0.04 | 0.00 | 65 | 1012.4 |
| 20260508004504 | 63 | 51 | 1.7 | 2.6 | 0.00 | 0.04 | 0.00 | 65 | 1012.4 |
| 20260508003606 | 63 | 50 | 1.7 | 3.5 | 0.00 | 0.04 | 0.00 | 65 | 1012.5 |
| 20260508002705 | 63 | 48 | 1.7 | 2.6 | 0.00 | 0.04 | 0.00 | 65 | 1012.7 |
| 20260508001806 | 63 | 52 | 1.7 | 2.6 | 0.00 | 0.04 | 0.00 | 66 | 1013.0 |
| 20260508000925 | 63 | 52 | 1.7 | 3.5 | 0.00 | 0.04 | 0.00 | 67 | 1012.9 |
| 20260508000047 | 63 | 56 | 1.7 | 4.3 | 0.00 | 0.04 | 0.00 | 65 | 1012.9 |
| 20260507235405 | 63 | 58 | 1.7 | 4.3 | 0.00 | 0.04 | 0.00 | 67 | 1013.0 |
| 20260507234504 | 64 | 52 | 1.7 | 2.6 | 0.00 | 0.04 | 0.00 | 65 | 1013.2 |
| 20260507233604 | 64 | 53 | 1.7 | 3.5 | 0.00 | 0.04 | 0.00 | 64 | 1013.2 |
| 20260507232704 | 64 | 50 | 1.7 | 3.5 | 0.00 | 0.04 | 0.00 | 64 | 1013.2 |
| 20260507231806 | 63 | 52 | 1.7 | 3.5 | 0.00 | 0.04 | 0.00 | 66 | 1013.3 |
| 20260507230906 | 64 | 31 | 1.7 | 3.5 | 0.00 | 0.04 | 0.00 | 66 | 1013.5 |
| 20260507230005 | 63 | 27 | 1.7 | 3.5 | 0.00 | 0.04 | 0.00 | 67 | 1013.6 |
| 20260507225405 | 63 | 32 | 1.7 | 3.5 | 0.00 | 0.04 | 0.00 | 67 | 1013.6 |
| 20260507224505 | 63 | 21 | 1.7 | 2.6 | 0.00 | 0.04 | 0.00 | 67 | 1013.7 |
| 20260507223605 | 63 | 22 | 1.7 | 2.6 | 0.00 | 0.04 | 0.00 | 67 | 1013.8 |
| 20260507222727 | 63 | 23 | 1.7 | 2.6 | 0.00 | 0.04 | 0.00 | 65 | 1013.9 |
| 20260507221805 | 63 | 24 | 1.7 | 2.6 | 0.00 | 0.04 | 0.00 | 65 | 1013.9 |
| 20260507220904 | 63 | 14 | 1.7 | 2.6 | 0.00 | 0.04 | 0.00 | 64 | 1013.9 |
| 20260507220025 | 64 | 10 | 1.7 | 2.6 | 0.00 | 0.04 | 0.00 | 64 | 1014.0 |
| 20260507215406 | 64 | 12 | 1.7 | 4.3 | 0.00 | 0.04 | 0.04 | 63 | 1013.9 |
| 20260507214505 | 64 | 5 | 1.7 | 4.3 | 0.00 | 0.04 | 0.04 | 63 | 1014.0 |
| 20260507213604 | 64 | 23 | 1.7 | 3.5 | 0.00 | 0.04 | 0.04 | 62 | 1014.2 |
| 20260507212705 | 64 | 6 | 1.7 | 7.0 | 0.00 | 0.04 | 0.04 | 62 | 1014.4 |
| 20260507211826 | 64 | 4 | 2.6 | 5.2 | 0.00 | 0.04 | 0.04 | 63 | 1014.3 |
| 20260507210905 | 63 | 357 | 2.6 | 7.0 | 0.00 | 0.04 | 0.04 | 65 | 1014.4 |
| 20260507210005 | 62 | 342 | 1.7 | 3.5 | 0.00 | 0.04 | 0.04 | 68 | 1014.6 |
| 20260507205425 | 62 | 330 | 1.7 | 3.5 | 0.00 | 0.04 | 0.04 | 68 | 1014.4 |
| 20260507204505 | 63 | 270 | 1.7 | 5.2 | 0.00 | 0.04 | 0.04 | 66 | 1014.6 |
| 20260507203610 | 63 | 296 | 2.6 | 6.1 | 0.00 | 0.04 | 0.04 | 65 | 1014.4 |
| 20260507202704 | 63 | 320 | 3.5 | 7.0 | 0.00 | 0.04 | 0.04 | 65 | 1014.5 |
| 20260507201805 | 62 | 338 | 2.6 | 5.2 | 0.00 | 0.04 | 0.04 | 69 | 1014.4 |
| 20260507200904 | 62 | 328 | 2.6 | 5.2 | 0.00 | 0.04 | 0.04 | 71 | 1014.6 |
| 20260507200007 | 62 | 336 | 2.6 | 5.2 | 0.00 | 0.05 | 0.04 | 73 | 1014.6 |
| 20260507195404 | 62 | 351 | 0.9 | 5.2 | 0.00 | 0.05 | 0.04 | 72 | 1014.8 |
| 20260507194526 | 62 | 18 | 0.9 | 4.3 | 0.00 | 0.05 | 0.04 | 76 | 1014.7 |
| 20260507193605 | 62 | 16 | 0.9 | 4.3 | 0.00 | 0.05 | 0.04 | 79 | 1014.8 |
| 20260507192704 | 62 | 21 | 0.9 | 2.6 | 0.00 | 0.05 | 0.04 | 82 | 1014.7 |
| 20260507191805 | 62 | 20 | 1.7 | 2.6 | 0.00 | 0.05 | 0.04 | 83 | 1014.6 |
| 20260507190904 | 62 | 16 | 1.7 | 2.6 | 0.00 | 0.05 | 0.04 | 86 | 1014.5 |
| 20260507190026 | 62 | 18 | 1.7 | 2.6 | 0.00 | 0.05 | 0.04 | 86 | 1014.5 |
| 20260507185406 | 61 | 18 | 1.7 | 2.6 | 0.00 | 0.05 | 0.04 | 86 | 1014.6 |
| 20260507184504 | 61 | 20 | 1.7 | 2.6 | 0.00 | 0.05 | 0.04 | 86 | 1014.5 |
| 20260507183605 | 61 | 17 | 1.7 | 2.6 | 0.00 | 0.05 | 0.04 | 86 | 1014.4 |
| 20260507182705 | 62 | 11 | 0.9 | 2.6 | 0.00 | 0.05 | 0.04 | 85 | 1014.6 |
| 20260507181805 | 62 | 16 | 1.7 | 2.6 | 0.00 | 0.05 | 0.04 | 86 | 1014.5 |
| 20260507180925 | 62 | 8 | 0.9 | 1.7 | 0.00 | 0.05 | 0.04 | 85 | 1014.6 |
| 20260507180026 | 63 | 5 | 1.7 | 1.7 | 0.00 | 0.05 | 0.04 | 84 | 1014.6 |
| 20260507175404 | 63 | 16 | 0.9 | 1.7 | 0.00 | 0.05 | 0.04 | 83 | 1014.6 |
| 20260507174505 | 64 | 15 | 0.9 | 1.7 | 0.00 | 0.05 | 0.04 | 82 | 1014.7 |
| 20260507173628 | 64 | 356 | 0.9 | 2.6 | 0.00 | 0.05 | 0.04 | 81 | 1014.7 |
| 20260507172704 | 64 | 344 | 0.9 | 3.5 | 0.00 | 0.05 | 0.04 | 80 | 1014.8 |
| 20260507171825 | 64 | 306 | 2.6 | 4.3 | 0.00 | 0.05 | 0.04 | 79 | 1014.9 |
| 20260507170904 | 65 | 289 | 2.6 | 6.1 | 0.00 | 0.05 | 0.04 | 80 | 1014.8 |
| 20260507170005 | 65 | 289 | 3.5 | 7.8 | 0.00 | 0.05 | 0.04 | 79 | 1014.9 |
| 20260507165404 | 65 | 286 | 3.5 | 7.8 | 0.00 | 0.05 | 0.04 | 80 | 1014.8 |
| 20260507164504 | 66 | 265 | 2.6 | 6.1 | 0.00 | 0.05 | 0.04 | 81 | 1014.9 |
| 20260507163604 | 66 | 248 | 2.6 | 6.1 | 0.00 | 0.05 | 0.04 | 81 | 1014.7 |
| 20260507162704 | 66 | 248 | 2.6 | 7.0 | 0.00 | 0.05 | 0.04 | 81 | 1014.6 |
| 20260507161804 | 66 | 283 | 3.5 | 7.0 | 0.00 | 0.05 | 0.04 | 79 | 1014.8 |
| 20260507160941 | 67 | 257 | 2.6 | 6.1 | 0.00 | 0.05 | 0.04 | 80 | 1014.7 |
| 20260507160025 | 67 | 246 | 2.6 | 7.0 | 0.00 | 0.05 | 0.04 | 78 | 1014.7 |
| 20260507155408 | 67 | 266 | 3.5 | 7.8 | 0.00 | 0.05 | 0.04 | 77 | 1014.7 |
| 20260507154511 | 67 | 279 | 3.5 | 7.8 | 0.00 | 0.05 | 0.04 | 77 | 1014.6 |
| 20260507153626 | 67 | 272 | 5.2 | 7.8 | 0.00 | 0.05 | 0.04 | 79 | 1014.8 |
| 20260507152704 | 67 | 267 | 3.5 | 7.8 | 0.00 | 0.05 | 0.04 | 75 | 1014.7 |
| 20260507151804 | 69 | 255 | 1.7 | 7.8 | 0.00 | 0.05 | 0.04 | 70 | 1014.7 |
| 20260507150904 | 69 | 306 | 2.6 | 7.8 | 0.00 | 0.05 | 0.04 | 66 | 1014.8 |
| 20260507150004 | 69 | 325 | 2.6 | 7.8 | 0.00 | 0.05 | 0.04 | 65 | 1015.1 |
| 20260507145404 | 69 | 320 | 2.6 | 7.8 | 0.00 | 0.05 | 0.04 | 64 | 1014.8 |
| 20260507144511 | 69 | 324 | 1.7 | 6.1 | 0.00 | 0.05 | 0.04 | 62 | 1014.8 |
| 20260507143604 | 69 | 306 | 1.7 | 4.3 | 0.00 | 0.05 | 0.04 | 65 | 1015.1 |
| 20260507142704 | 68 | 301 | 1.7 | 6.1 | 0.00 | 0.05 | 0.04 | 72 | 1014.8 |
| 20260507141804 | 69 | 283 | 3.5 | 8.7 | 0.00 | 0.05 | 0.04 | 69 | 1014.8 |
| 20260507140925 | 67 | 259 | 2.6 | 7.8 | 0.00 | 0.05 | 0.04 | 73 | 1015.3 |
| 20260507140005 | 67 | 232 | 2.6 | 5.2 | 0.00 | 0.05 | 0.04 | 74 | 1015.3 |
| 20260507135426 | 66 | 173 | 2.6 | 5.2 | 0.00 | 0.05 | 0.04 | 75 | 1015.6 |
| 20260507134503 | 66 | 201 | 1.7 | 5.2 | 0.00 | 0.05 | 0.04 | 75 | 1015.5 |
| 20260507133605 | 66 | 246 | 2.6 | 5.2 | 0.00 | 0.05 | 0.04 | 76 | 1015.9 |
| 20260507132704 | 66 | 257 | 2.6 | 6.1 | 0.00 | 0.05 | 0.04 | 76 | 1016.1 |
| 20260507131804 | 66 | 259 | 3.5 | 6.1 | 0.00 | 0.05 | 0.04 | 74 | 1015.9 |
| 20260507130905 | 66 | 238 | 3.5 | 10.4 | 0.00 | 0.05 | 0.04 | 75 | 1016.2 |
| 20260507130006 | 66 | 262 | 4.3 | 10.4 | 0.00 | 0.05 | 0.04 | 71 | 1016.0 |
| 20260507125404 | 66 | 248 | 3.5 | 9.6 | 0.00 | 0.05 | 0.04 | 72 | 1016.2 |
| 20260507124504 | 67 | 176 | 2.6 | 7.0 | 0.00 | 0.05 | 0.04 | 70 | 1016.0 |
| 20260507123604 | 68 | 306 | 2.6 | 7.0 | 0.00 | 0.05 | 0.04 | 65 | 1016.2 |
| 20260507122705 | 68 | 258 | 3.5 | 7.8 | 0.00 | 0.05 | 0.04 | 58 | 1016.1 |
| 20260507121804 | 68 | 328 | 2.6 | 7.8 | 0.00 | 0.05 | 0.04 | 61 | 1016.2 |
| 20260507120904 | 67 | 307 | 2.6 | 7.0 | 0.00 | 0.05 | 0.04 | 69 | 1016.3 |
| 20260507120005 | 68 | 312 | 2.6 | 5.2 | 0.00 | 0.05 | 0.04 | 67 | 1016.1 |
| 20260507115403 | 67 | 310 | 2.6 | 6.1 | 0.00 | 0.05 | 0.04 | 67 | 1016.1 |
| 20260507114525 | 67 | 320 | 2.6 | 6.1 | 0.00 | 0.05 | 0.04 | 69 | 1016.5 |
| 20260507113626 | 66 | 327 | 2.6 | 8.7 | 0.00 | 0.05 | 0.04 | 71 | 1016.3 |
| 20260507112704 | 67 | 355 | 1.7 | 4.3 | 0.00 | 0.05 | 0.04 | 70 | 1016.5 |
| 20260507111825 | 66 | 324 | 3.5 | 7.8 | 0.00 | 0.05 | 0.04 | 72 | 1016.7 |
| 20260507110904 | 65 | 332 | 2.6 | 7.8 | 0.00 | 0.05 | 0.04 | 73 | 1016.6 |
| 20260507110004 | 65 | 337 | 2.6 | 7.0 | 0.00 | 0.05 | 0.04 | 73 | 1016.6 |
| 20260507104505 | 65 | 333 | 1.7 | 6.1 | 0.00 | 0.05 | 0.04 | 74 | 1016.7 |
| 20260507103604 | 64 | 334 | 2.6 | 7.8 | 0.00 | 0.05 | 0.04 | 74 | 1016.6 |
| 20260507102745 | 65 | 323 | 2.6 | 7.8 | 0.00 | 0.05 | 0.04 | 73 | 1016.8 |
| 20260507101804 | 64 | 340 | 2.6 | 5.2 | 0.00 | 0.05 | 0.04 | 74 | 1017.0 |
| 20260507100903 | 64 | 359 | 0.9 | 5.2 | 0.00 | 0.05 | 0.04 | 73 | 1017.2 |
| 20260507100004 | 64 | 337 | 2.6 | 7.8 | 0.00 | 0.05 | 0.04 | 75 | 1017.0 |
| 20260507095404 | 62 | 332 | 3.5 | 7.8 | 0.00 | 0.05 | 0.04 | 77 | 1016.9 |
| 20260507094504 | 62 | 324 | 2.6 | 7.8 | 0.00 | 0.05 | 0.04 | 77 | 1017.0 |
| 20260507093605 | 62 | 324 | 3.5 | 6.1 | 0.00 | 0.05 | 0.04 | 79 | 1017.0 |
| 20260507092703 | 62 | 322 | 2.6 | 6.1 | 0.00 | 0.05 | 0.04 | 78 | 1017.0 |
| 20260507091803 | 62 | 311 | 2.6 | 7.0 | 0.00 | 0.05 | 0.04 | 79 | 1016.9 |
| 20260507090925 | 61 | 330 | 3.5 | 7.0 | 0.00 | 0.05 | 0.04 | 79 | 1016.8 |
| 20260507090027 | 62 | 310 | 2.6 | 7.0 | 0.00 | 0.05 | 0.04 | 78 | 1016.7 |
| 20260507085430 | 61 | 298 | 3.5 | 7.0 | 0.00 | 0.05 | 0.04 | 79 | 1016.8 |
| 20260507084504 | 61 | 330 | 2.6 | 7.0 | 0.00 | 0.05 | 0.04 | 79 | 1016.8 |
| 20260507083603 | 60 | 333 | 2.6 | 10.4 | 0.00 | 0.05 | 0.04 | 80 | 1016.7 |
| 20260507082703 | 60 | 336 | 1.7 | 6.1 | 0.00 | 0.05 | 0.04 | 79 | 1016.8 |
| 20260507081805 | 59 | 348 | 2.6 | 7.8 | 0.00 | 0.05 | 0.04 | 81 | 1016.8 |
| 20260507080904 | 60 | 345 | 1.7 | 5.2 | 0.00 | 0.05 | 0.04 | 78 | 1016.6 |
| 20260507080005 | 60 | 25 | 1.7 | 4.3 | 0.00 | 0.05 | 0.04 | 80 | 1017.0 |
| 20260507075403 | 61 | 356 | 1.7 | 3.5 | 0.00 | 0.05 | 0.04 | 79 | 1017.0 |
| 20260507074503 | 61 | 75 | 0.9 | 3.5 | 0.00 | 0.05 | 0.04 | 79 | 1016.8 |
| 20260507073603 | 61 | 339 | 0.9 | 2.6 | 0.00 | 0.05 | 0.04 | 79 | 1017.0 |
| 20260507072703 | 60 | 111 | 1.7 | 4.3 | 0.00 | 0.05 | 0.04 | 78 | 1017.0 |
| 20260507071803 | 60 | 163 | 1.7 | 4.3 | 0.00 | 0.05 | 0.04 | 78 | 1016.9 |
| 20260507070903 | 58 | 253 | 0.9 | 2.6 | 0.00 | 0.05 | 0.04 | 82 | 1017.4 |
| 20260507070009 | 58 | 241 | 0.9 | 3.5 | 0.00 | 0.05 | 0.04 | 84 | 1017.4 |
| 20260507065403 | 58 | 189 | 0.9 | 2.6 | 0.00 | 0.05 | 0.04 | 82 | 1017.1 |
| 20260507064503 | 58 | 129 | 1.7 | 4.3 | 0.00 | 0.05 | 0.04 | 83 | 1016.9 |
| 20260507063625 | 58 | 134 | 2.6 | 4.3 | 0.00 | 0.05 | 0.04 | 82 | 1016.8 |
| 20260507062703 | 59 | 121 | 2.6 | 5.2 | 0.00 | 0.06 | 0.04 | 82 | 1016.8 |
| 20260507061803 | 58 | 115 | 2.6 | 4.3 | 0.00 | 0.06 | 0.04 | 82 | 1016.6 |
| 20260507060903 | 58 | 111 | 1.7 | 4.3 | 0.00 | 0.06 | 0.04 | 84 | 1016.8 |
| 20260507060003 | 57 | 125 | 2.6 | 4.3 | 0.00 | 0.06 | 0.04 | 85 | 1016.4 |
| 20260507055403 | 57 | 125 | 2.6 | 5.2 | 0.00 | 0.06 | 0.04 | 85 | 1016.6 |
| 20260507054506 | 56 | 111 | 2.6 | 5.2 | 0.00 | 0.06 | 0.04 | 87 | 1016.6 |
| 20260507053604 | 55 | 102 | 2.6 | 5.2 | 0.00 | 0.06 | 0.04 | 89 | 1016.7 |
| 20260507052729 | 55 | 97 | 3.5 | 6.1 | 0.00 | 0.06 | 0.04 | 89 | 1016.5 |
| 20260507051805 | 54 | 97 | 4.3 | 7.0 | 0.00 | 0.06 | 0.04 | 90 | 1016.4 |
| 20260507050907 | 54 | 95 | 4.3 | 5.2 | 0.00 | 0.07 | 0.04 | 91 | 1016.6 |
| 20260507050006 | 54 | 103 | 3.5 | 7.8 | 0.00 | 0.07 | 0.04 | 92 | 1016.4 |
| 20260507045404 | 54 | 109 | 4.3 | 7.8 | 0.00 | 0.07 | 0.04 | 93 | 1016.5 |
| 20260507044505 | 54 | 116 | 4.3 | 7.8 | 0.00 | 0.07 | 0.04 | 93 | 1016.4 |
| 20260507043605 | 54 | 113 | 4.3 | 7.8 | 0.01 | 0.08 | 0.04 | 94 | 1016.2 |
| 20260507042704 | 53 | 117 | 5.2 | 7.0 | 0.01 | 0.08 | 0.04 | 94 | 1016.2 |
| 20260507041805 | 53 | 115 | 4.3 | 9.6 | 0.01 | 0.08 | 0.04 | 94 | 1016.3 |
| 20260507040911 | 54 | 121 | 4.3 | 8.7 | 0.01 | 0.08 | 0.04 | 94 | 1016.2 |
| 20260507040004 | 54 | 116 | 4.3 | 7.8 | 0.02 | 0.08 | 0.04 | 94 | 1016.2 |
| 20260507035404 | 54 | 119 | 3.5 | 6.1 | 0.02 | 0.08 | 0.04 | 94 | 1016.4 |
| 20260507034505 | 54 | 120 | 3.5 | 7.0 | 0.02 | 0.08 | 0.04 | 93 | 1016.2 |